Wind_Speed
21 21 21 20 20 21 22 23 26 30 39 33 34 37 39 38 37 37 36 36 35 38 40 42 44 49 50 44 49 44 40 55 63 62 60 63 62 57
21 21 20 19 19 19 21 24 27 32 37 41 43 44 43 41 40 40 40 38 37 37 37 39 40 43 52 50 46 46 50 41 53 66 64 62 62 65
19 19 19 17 19 20 23 26 30 32 36 49 43 43 44 44 42 42 41 39 38 35 35 36 37 38 41 47 51 46 39 49 45 56 67 63 72 65
18 18 18 18 20 21 26 31 34 35 38 45 47 45 45 43 43 41 42 38 36 36 34 33 34 35 38 40 45 50 43 41 49 53 55 69 65 67
17 18 18 20 25 26 29 32 33 36 38 42 50 44 45 44 44 42 42 41 36 36 31 29 28 29 29 32 35 45 50 41 50 51 59 62 69 67
19 21 20 26 26 27 29 32 34 35 37 41 45 44 43 39 38 39 41 37 35 33 30 29 27 27 29 30 34 38 45 42 38 43 55 67 72 71
22 22 24 25 27 28 31 35 39 42 47 47 46 42 44 42 40 39 38 36 34 31 29 23 22 24 27 26 26 29 35 47 40 39 53 52 61 74
26 25 27 27 26 28 28 30 31 38 42 46 50 43 51 48 45 43 42 39 37 34 28 33 26 28 28 32 34 34 37 38 47 41 41 48 51 74
25 26 26 27 27 28 30 32 32 33 34 41 49 51 52 50 44 41 40 39 41 38 34 40 36 40 36 37 34 33 34 38 42 45 34 41 48 66
24 24 23 24 25 25 29 32 35 36 32 34 36 42 46 44 44 46 43 39 40 42 40 45 39 39 39 38 35 34 35 39 46 49 41 32 48 55
22 20 23 23 25 26 30 34 36 38 36 36 35 38 36 37 38 37 38 37 37 37 32 32 37 39 37 34 28 26 30 32 38 51 51 38 40 54
24 23 23 25 26 29 30 31 35 34 33 36 37 35 36 33 38 39 41 40 40 34 35 28 28 26 23 20 15 10 11 16 25 31 49 44 35 48
26 27 29 28 27 26 26 29 31 31 32 33 35 34 36 36 32 34 33 38 44 45 44 28 32 34 35 38 32 28 21 17 17 25 32 40 37 41
26 27 28 28 27 24 27 29 26 26 31 31 29 26 27 27 30 31 33 34 31 37 37 34 36 34 32 28 26 25 26 24 21 18 31 37 35 41
25 25 27 26 24 31 28 21 23 23 22 21 22 22 22 16 20 26 32 35 29 31 29 29 33 31 32 33 33 28 27 28 25 19 25 29 20 30
23 24 21 27 30 25 20 19 18 18 17 20 22 23 23 22 23 25 25 26 29 27 24 24 26 26 35 33 31 30 28 26 24 25 21 35 28 15
23 26 29 28 21 17 16 16 16 16 16 18 19 19 18 18 18 15 15 24 30 26 24 25 23 21 21 25 31 25 24 27 26 25 27 25 30 24
22 24 23 17 16 16 16 16 16 16 16 17 17 18 19 18 18 18 19 12 19 27 25 21 23 20 21 22 23 24 23 23 22 21 21 24 31 29
18 17 16 15 16 15 16 17 18 17 17 16 17 18 18 17 16 17 17 19 20 17 12 14 16 16 21 26 26 26 26 22 19 23 21 21 26 29
14 14 15 15 15 16 16 17 18 17 17 18 18 17 16 17 17 17 17 17 18 20 22 22 24 20 21 26 29 30 21 24 28 29 25 21 24 27
15 15 14 15 16 17 18 19 19 19 19 21 18 17 19 19 18 17 18 17 17 19 23 24 21 19 20 23 29 29 28 21 21 23 22 23 23 27
17 17 15 16 17 17 19 20 20 19 20 21 20 18 23 19 19 19 19 20 20 21 23 23 21 21 21 23 27 29 29 27 22 18 21 22 21 12
19 19 19 19 18 19 20 21 21 20 21 23 24 23 27 24 21 22 21 21 22 23 23 25 23 19 20 22 24 28 28 27 25 27 27 24 26 31
Wind_Direction
285 282 280 281 281 285 289 290 287 286 293 296 294 299 302 301 298 295 289 283 280 277 273 269 263 257 260 261 249 232 227 213 225 236 237 229 226 224
287 285 283 284 285 284 286 286 282 279 276 294 298 298 300 299 297 296 292 291 284 279 276 272 269 263 255 258 257 249 228 219 221 227 232 233 231 222
287 286 286 288 289 293 294 291 288 286 276 299 297 299 298 299 297 294 292 291 288 282 276 270 267 262 259 256 257 256 256 233 222 224 228 227 227 219
291 291 292 297 300 300 295 292 291 293 288 290 296 296 297 300 298 294 293 291 289 285 280 272 267 261 256 260 255 256 258 247 227 225 226 226 227 226
289 293 296 298 300 295 295 294 293 293 290 285 292 292 293 298 297 294 292 293 291 289 282 275 273 268 267 262 254 251 252 256 242 230 227 223 227 224
293 293 294 298 296 294 294 290 294 293 291 286 285 284 287 293 291 292 295 297 295 287 281 271 268 268 269 270 259 253 248 251 263 255 225 228 224 226
300 296 301 300 297 293 285 295 294 292 287 281 277 274 279 283 281 295 292 298 295 290 289 275 270 265 257 254 252 245 245 242 252 266 238 230 219 223
291 289 295 295 291 285 283 280 279 281 283 277 274 265 276 277 279 284 285 284 283 290 295 277 272 266 267 255 257 256 247 241 239 259 254 234 229 222
288 294 293 288 290 288 287 285 283 281 275 276 274 273 277 280 279 277 275 279 281 289 284 283 276 275 271 267 265 266 264 246 241 247 260 247 234 221
287 288 298 296 293 293 297 294 290 292 288 287 287 278 273 277 274 275 277 279 281 276 274 277 284 281 278 275 277 272 270 245 238 242 255 266 235 229
296 290 297 296 292 295 294 291 287 289 291 290 290 280 283 266 266 270 265 265 266 269 281 275 277 280 286 284 287 282 266 249 236 236 248 269 258 231
299 293 297 298 295 294 293 289 294 296 297 295 289 289 274 278 262 255 263 259 256 265 273 264 283 281 289 296 254 293 270 245 238 244 246 253 266 229
300 296 304 305 300 295 292 294 292 294 294 287 287 289 282 276 280 273 255 259 260 262 263 267 270 269 270 284 283 295 298 277 253 232 247 257 271 231
301 300 302 308 298 297 295 292 292 290 287 291 294 288 289 287 283 280 270 262 263 265 270 268 265 267 274 280 284 284 290 297 295 252 242 250 263 234
301 301 299 294 297 302 303 295 291 292 297 300 296 289 284 289 292 286 279 277 269 267 269 265 263 266 266 267 274 283 288 293 299 276 235 243 270 230
310 304 297 302 304 300 295 299 301 302 301 295 298 298 297 293 275 278 278 281 270 271 268 268 264 267 267 266 269 275 276 285 285 287 278 237 253 259
307 299 300 306 306 311 312 314 314 315 313 308 307 309 306 299 295 280 283 278 267 266 268 270 270 271 261 263 262 263 275 285 293 293 286 255 237 253
300 299 306 310 318 324 325 324 324 324 323 320 316 316 313 309 305 290 277 279 268 265 265 260 270 267 263 261 264 275 283 287 291 293 285 271 250 248
299 309 317 320 323 325 327 327 326 326 324 321 321 323 320 318 315 309 297 286 280 270 261 252 262 264 258 264 275 279 282 285 283 291 288 271 264 254
314 317 321 323 325 327 328 329 328 328 330 329 325 320 321 322 321 318 312 304 293 284 277 272 266 255 260 268 278 274 268 275 281 287 280 273 259 252
327 320 321 321 325 323 322 321 322 324 328 326 321 321 328 329 316 313 313 307 300 291 286 282 277 275 273 266 265 268 269 271 276 280 283 286 272 256
325 320 320 319 320 322 322 319 317 316 322 329 326 316 333 323 319 318 312 308 305 300 297 296 289 274 264 261 266 271 273 268 259 267 272 267 260 257
323 317 314 315 316 319 321 321 318 313 316 324 324 319 328 331 317 313 310 309 307 304 301 301 300 286 276 269 268 272 273 272 273 260 264 264 262 253
Height
1466 1465 1465 1464 1462 1460 1460 1460 1461 1459 1451 1452 1453 1451 1450 1448 1446 1444 1442 1440 1437 1434 1433 1433 1435 1436 1438 1439 1439 1442 1445 1448 1453 1463 1469 1473 1482 1490
1460 1459 1458 1457 1456 1456 1455 1456 1458 1456 1448 1447 1443 1441 1440 1438 1437 1434 1432 1430 1427 1426 1424 1424 1425 1425 1428 1430 1430 1432 1431 1430 1440 1450 1456 1462 1470 1475
1455 1453 1452 1451 1450 1450 1449 1450 1450 1449 1443 1429 1432 1432 1429 1427 1427 1425 1423 1420 1417 1416 1415 1414 1415 1415 1416 1418 1419 1421 1421 1424 1427 1435 1441 1449 1456 1461
1448 1446 1445 1445 1444 1444 1445 1445 1444 1442 1437 1427 1423 1423 1421 1420 1417 1416 1413 1411 1409 1406 1405 1405 1404 1404 1405 1406 1409 1411 1413 1415 1415 1419 1426 1432 1441 1449
1442 1441 1439 1438 1438 1439 1439 1437 1434 1431 1428 1424 1414 1417 1413 1412 1408 1406 1404 1402 1400 1398 1396 1396 1394 1394 1397 1396 1397 1397 1398 1401 1404 1404 1412 1415 1426 1435
1436 1435 1433 1433 1432 1432 1431 1428 1425 1421 1419 1416 1410 1409 1407 1406 1404 1400 1396 1395 1392 1390 1389 1387 1386 1386 1386 1386 1385 1387 1388 1393 1394 1398 1400 1404 1408 1418
1429 1428 1427 1426 1425 1424 1422 1418 1416 1413 1409 1407 1403 1402 1398 1398 1396 1394 1390 1387 1384 1383 1380 1378 1379 1377 1376 1376 1375 1376 1376 1382 1386 1385 1384 1388 1392 1402
1423 1422 1421 1420 1418 1417 1415 1413 1411 1406 1401 1399 1394 1392 1388 1388 1388 1386 1383 1380 1375 1376 1374 1368 1369 1366 1366 1367 1367 1368 1369 1372 1377 1376 1370 1372 1380 1390
1417 1415 1413 1412 1410 1408 1405 1403 1400 1397 1396 1391 1384 1381 1378 1378 1379 1376 1374 1372 1367 1367 1367 1359 1361 1357 1358 1357 1356 1355 1354 1356 1356 1362 1359 1362 1369 1377
1410 1408 1406 1404 1402 1400 1397 1393 1389 1387 1384 1381 1377 1373 1370 1369 1369 1366 1365 1363 1359 1357 1359 1351 1353 1347 1347 1345 1344 1342 1340 1340 1344 1348 1352 1354 1359 1364
1403 1401 1399 1397 1395 1393 1389 1384 1380 1376 1374 1371 1367 1363 1360 1359 1358 1357 1354 1354 1349 1347 1348 1345 1343 1341 1339 1334 1333 1330 1329 1328 1330 1336 1347 1346 1349 1353
1396 1394 1392 1390 1388 1385 1381 1376 1370 1367 1364 1360 1355 1351 1350 1348 1349 1349 1347 1343 1340 1338 1337 1339 1338 1337 1332 1326 1325 1322 1322 1324 1326 1330 1334 1340 1339 1341
1389 1386 1384 1382 1379 1376 1373 1368 1363 1360 1355 1350 1346 1341 1338 1337 1336 1335 1336 1335 1332 1329 1331 1334 1331 1331 1328 1322 1318 1318 1317 1314 1314 1316 1320 1320 1322 1327
1382 1379 1376 1373 1370 1367 1364 1359 1356 1351 1346 1342 1338 1334 1330 1327 1325 1324 1325 1325 1324 1321 1322 1324 1321 1322 1320 1317 1314 1311 1310 1308 1306 1305 1307 1311 1315 1316
1377 1373 1370 1365 1362 1358 1354 1352 1348 1343 1339 1335 1331 1327 1325 1321 1319 1317 1316 1314 1314 1313 1314 1314 1313 1313 1313 1311 1309 1308 1307 1304 1303 1299 1301 1307 1307 1303
1370 1366 1362 1359 1355 1351 1347 1344 1340 1337 1333 1330 1325 1321 1318 1315 1312 1310 1308 1307 1306 1305 1306 1306 1306 1306 1304 1304 1304 1303 1303 1301 1301 1299 1295 1299 1301 1302
1364 1359 1355 1352 1347 1344 1341 1338 1335 1331 1328 1324 1320 1316 1312 1309 1306 1304 1301 1300 1299 1299 1299 1299 1299 1299 1298 1298 1298 1297 1296 1295 1295 1295 1295 1291 1294 1297
1357 1353 1349 1346 1343 1340 1337 1333 1330 1327 1324 1320 1316 1312 1308 1304 1301 1298 1296 1295 1294 1293 1293 1293 1294 1293 1292 1291 1292 1291 1291 1290 1289 1289 1289 1284 1283 1288
1352 1349 1345 1342 1339 1336 1333 1330 1326 1323 1319 1316 1312 1308 1304 1301 1297 1294 1291 1289 1288 1287 1287 1287 1287 1287 1286 1284 1286 1286 1284 1284 1283 1280 1277 1274 1276 1278
1348 1344 1341 1338 1335 1332 1329 1326 1322 1319 1315 1312 1308 1304 1301 1298 1294 1291 1288 1285 1283 1281 1280 1281 1281 1281 1281 1279 1277 1276 1277 1276 1276 1273 1274 1274 1270 1270
1344 1340 1338 1335 1331 1328 1325 1322 1318 1315 1311 1308 1304 1301 1297 1293 1290 1287 1284 1282 1280 1277 1275 1274 1275 1275 1273 1273 1269 1267 1267 1269 1269 1266 1265 1263 1265 1264
1341 1337 1334 1331 1328 1324 1321 1317 1313 1310 1307 1303 1300 1296 1293 1289 1286 1283 1280 1277 1275 1272 1269 1267 1267 1266 1266 1264 1262 1260 1260 1260 1262 1262 1262 1264 1264 1260
1337 1333 1330 1327 1324 1320 1317 1313 1309 1306 1303 1299 1295 1291 1288 1284 1281 1278 1275 1273 1270 1267 1264 1261 1260 1259 1257 1256 1255 1253 1253 1253 1254 1253 1253 1253 1254 1253